Location: Newark
(51.2625°N, 13.3939°E)
Time: 05:54:21
(UTC+00:00)

Explorer 7 - Pass Details

Date: 18 November 2019
Orbit: 485 x 680 km, 50.3° (Epoch: 10 December)

Event Time Altitude Azimuth Distance (km) Brightness Sun altitude
Rises 23:05:35 0° 214° (SW) 2,944 - -57.9°
Reaches altitude 10° 23:08:15 10° 202° (SSW) 2,007 - -57.9°
Maximum altitude 23:12:03 26° 146° (SE) 1,216 - -57.8°
Drops below altitude 10° 23:15:41 10° 90° (E) 1,914 - -57.7°
Sets 23:18:10 0° 78° (ENE) 2,778 - -57.6°
